Location: Limerick
(52.6800°N, 8.6400°W)
Time: 00:03:06
(UTC+01:00)

Sapphire - Visible Passes

Search period start: 31 March 2015 00:00
Search period end: 10 April 2015 00:00
Orbit: 785 x 797 km, 67.1° (Epoch: 30 March)

Date Brightness Start Highest point End Pass type
(mag) Time Alt. Az. Time Alt. Az. Time Alt. Az.
31 Mar ? 00:53:20 10° NW 00:56:25 31° WNW 00:56:25 31° WNW visible
31 Mar ? 20:55:33 10° NW 20:59:26 19° NNE 21:03:21 10° ENE visible
31 Mar ? 22:39:14 10° NNW 22:44:21 39° NE 22:45:58 32° ENE visible
01 Apr ? 00:22:42 10° NW 00:26:42 44° WNW 00:26:42 44° WNW visible
01 Apr ? 22:08:42 10° NNW 22:13:38 33° NNE 22:16:16 22° E visible
01 Apr ? 23:52:06 10° NW 23:57:00 66° W 23:57:00 66° W visible
02 Apr ? 01:37:08 10° WNW 01:37:44 12° WNW 01:37:44 12° WNW visible
02 Apr ? 21:38:10 10° NNW 21:42:53 29° NNE 21:46:35 15° E visible
02 Apr ? 23:21:32 10° NW 23:27:00 89° W 23:27:19 81° SE visible
03 Apr ? 01:05:58 10° WNW 01:08:03 17° W 01:08:03 17° W visible
03 Apr ? 21:07:36 10° NNW 21:12:07 26° NNE 21:16:40 10° E visible
03 Apr ? 22:50:59 10° NW 22:56:27 74° NE 22:57:40 54° ESE visible
04 Apr ? 00:35:02 10° WNW 00:38:24 24° W 00:38:24 24° W visible
04 Apr ? 22:20:26 10° NW 22:25:50 60° NE 22:28:02 35° ESE visible
05 Apr ? 00:04:14 10° NW 00:08:47 32° WSW 00:08:47 32° WSW visible
05 Apr ? 21:49:54 10° NW 21:55:12 49° NE 21:58:26 23° ESE visible
05 Apr ? 23:33:31 10° NW 23:38:38 41° WSW 23:39:11 40° SW visible
06 Apr ? 21:19:22 10° NNW 21:24:32 41° NE 21:28:52 14° ESE visible
06 Apr ? 23:02:52 10° NW 23:08:10 53° WSW 23:09:37 41° SSW visible
07 Apr ? 20:48:50 10° NNW 20:53:50 35° NE 20:58:49 10° E visible
07 Apr ? 22:32:15 10° NW 22:37:40 67° WSW 22:40:06 33° SSE visible
08 Apr ? 00:17:33 10° WNW 00:20:14 14° WSW 00:20:50 13° WSW visible
08 Apr ? 22:01:40 10° NW 22:07:09 84° SW 22:10:35 23° SSE visible
08 Apr ? 23:46:15 10° WNW 23:49:54 18° WSW 23:51:21 16° SW visible
09 Apr ? 21:31:07 10° NW 21:36:36 79° NE 21:41:09 15° SE visible
09 Apr ? 23:15:16 10° WNW 23:19:32 23° WSW 23:21:55 17° SW visible
